Date,TemperatureHighF,TemperatureAvgF,TemperatureLowF,DewpointHighF,DewpointAvgF,DewpointLowF,HumidityHigh,HumidityAvg,HumidityLow,PressureMaxIn,PressureMinIn,WindSpeedMaxMPH,WindSpeedAvgMPH,GustSpeedMaxMPH,PrecipitationSumIn
2013-9-1,96.1,70.0,48.2,36.0,31.2,27.4,50,27,11,29.99,29.85,5,1,5,0.00
2013-9-2,87.1,69.3,53.1,35.6,30.6,26.1,41,25,13,29.96,29.88,6,0,6,0.00
2013-9-3,81.7,67.9,57.6,45.5,38.7,32.8,47,35,20,30.05,29.96,8,0,8,0.00
2013-9-4,96.1,72.3,53.4,49.7,38.3,28.1,65,34,11,30.08,29.96,5,0,5,0.00
2013-9-5,85.5,67.2,57.7,54.4,43.8,36.2,73,46,21,30.05,29.96,9,1,9,0.08
2013-9-6,82.8,66.8,52.3,60.8,45.5,36.3,78,52,22,30.02,29.93,6,0,6,0.00
2013-9-7,86.9,68.0,48.7,48.9,36.1,27.0,68,36,13,30.08,29.91,6,0,6,0.00
2013-9-8,75.6,59.5,46.8,41.5,33.4,24.9,63,39,22,29.99,29.93,10,0,10,0.00
2013-9-9,84.6,63.2,50.9,45.2,34.6,29.3,62,37,16,30.02,29.96,9,1,9,0.00
2013-9-10,89.6,64.9,44.8,42.9,33.6,27.0,67,38,13,30.08,29.96,6,1,6,0.00
2013-9-11,90.7,79.1,58.8,39.0,31.0,22.5,42,18,12,30.14,30.02,5,1,8,0.00
2013-9-12,93.0,70.1,49.1,40.8,33.1,27.8,52,29,12,30.11,29.93,10,1,10,0.00
2013-9-13,94.3,72.8,56.1,42.8,36.1,28.8,49,29,11,29.93,29.79,15,2,15,0.00
2013-9-14,87.6,69.0,54.7,42.5,35.4,25.0,53,32,14,29.99,29.88,8,1,8,0.00
2013-9-15,91.6,67.2,47.8,46.2,35.9,30.1,64,36,14,29.99,29.82,15,1,15,0.00
2013-9-16,91.8,69.4,53.2,57.1,38.6,23.1,73,40,12,29.91,29.73,13,1,13,0.00
2013-9-17,68.2,55.2,45.1,45.6,38.3,30.5,69,54,35,29.85,29.61,9,0,9,0.00
2013-9-18,69.4,56.2,47.3,32.0,26.2,21.4,47,32,22,30.05,29.73,10,1,10,0.00
2013-9-19,75.9,54.8,37.6,31.8,24.8,17.6,60,35,15,30.14,29.99,8,1,8,0.00
2013-9-20,87.1,56.2,34.5,35.1,24.5,17.3,64,35,12,30.02,29.70,8,0,8,0.00
2013-9-21,75.2,55.8,38.7,29.1,23.3,18.8,47,30,15,29.73,29.64,6,0,7,0.00
2013-9-22,66.6,53.6,47.5,49.4,38.5,29.1,75,58,35,29.73,29.67,7,1,7,0.04
2013-9-23,66.9,52.4,42.1,47.5,30.7,22.4,74,48,20,29.93,29.73,6,1,10,0.04
2013-9-24,49.3,45.2,41.4,41.7,35.6,25.4,76,69,52,29.93,29.76,6,0,6,0.20
2013-9-25,54.0,45.5,42.8,40.1,36.2,27.2,80,71,39,29.76,29.67,5,0,5,0.24
2013-9-26,54.1,46.0,41.2,35.8,25.9,18.4,77,49,27,29.96,29.76,7,0,7,0.20
2013-9-27,57.9,50.9,41.7,30.7,22.8,19.2,62,34,25,29.99,29.91,11,3,11,0.08
2013-9-28,65.7,53.3,46.0,39.3,28.7,22.7,63,40,26,29.91,29.76,15,5,15,0.08
2013-9-29,55.9,47.5,42.6,38.2,32.0,29.0,71,55,38,29.79,29.58,14,4,14,0.20
2013-9-30,62.4,48.5,39.2,35.7,26.5,17.2,68,46,21,29.91,29.49,37,3,37,0.24